FW5669 Weather Reports


Display with metric or nautical units.
time (UTC)temp
F
wind
direction
speed
MPH
gust
MPH
rain 1hr
in
rain 24hr
in
rain mn
in
humidity
%
barometer
mb
20260502200130 68 331 0.0 2.0 0.00 0.00 0.00 47 1013.7
20260502200002 68 260 0.0 2.0 0.00 0.00 0.00 47 1013.7
20260502194501 67 312 0.0 2.0 0.00 0.00 0.00 51 1013.7
20260502193001 66 231 0.0 2.0 0.00 0.00 0.00 55 1013.9
20260502191610 64 174 0.0 3.0 0.00 0.00 0.00 64 1013.9
20260502191500 64 175 0.0 3.0 0.00 0.00 0.00 67 1013.9
20260502190101 63 170 0.0 2.0 0.00 0.00 0.00 67 1014.0
20260502184601 63 197 0.0 2.0 0.00 0.00 0.00 71 1013.8
20260502183113 63 248 0.0 2.0 0.00 0.00 0.00 70 1014.0
20260502181600 63 222 0.0 3.0 0.00 0.00 0.00 72 1014.0
20260502163101 68 179 0.0 2.0 0.00 0.00 0.00 63 1013.0
20260502161606 68 190 0.0 2.0 0.00 0.00 0.00 62 1013.1
20260502160106 67 206 0.0 2.0 0.00 0.00 0.00 64 1013.1
20260502151611 63 69 0.0 3.0 0.00 0.00 0.00 72 1013.0
20260502150130 60 36 0.0 1.0 0.00 0.00 0.00 79 1013.1
20260502130109 56 60 0.0 1.0 0.00 0.00 0.00 82 1012.3
20260502123100 57 60 0.0 1.0 0.00 0.00 0.00 79 1012.2
20260502121604 57 36 0.0 2.0 0.00 0.00 0.00 79 1012.1
20260502120115 58 46 0.0 2.0 0.00 0.00 0.00 78 1012.2
20260502114622 58 56 0.0 2.0 0.00 0.00 0.00 78 1012.3
20260502113116 58 73 0.0 1.0 0.00 0.00 0.00 78 1012.3
20260502113004 58 74 0.0 1.0 0.00 0.00 0.00 78 1012.4
20260502111607 58 33 1.0 3.0 0.00 0.00 0.00 79 1012.4
20260502110106 58 31 0.0 1.0 0.00 0.00 0.00 79 1012.3
20260502110001 58 31 0.0 1.0 0.00 0.00 0.00 79 1012.3
20260502104600 58 8 0.0 1.0 0.00 0.00 0.00 80 1012.4
20260502103115 58 107 0.0 2.0 0.00 0.00 0.00 80 1012.4
20260502101610 59 22 0.0 1.0 0.00 0.00 0.00 79 1012.6
20260502080104 61 38 1.0 3.0 0.00 0.00 0.00 79 1013.3
20260502070007 61 6 1.0 3.0 0.00 0.00 0.00 81 1013.5
20260502064600 61 10 1.0 2.0 0.00 0.00 0.00 82 1013.5
20260502064501 61 35 1.0 3.0 0.00 0.00 0.00 82 1013.5
20260502063126 60 72 0.0 2.0 0.00 0.00 0.00 82 1013.6
20260502063001 60 72 0.0 2.0 0.00 0.00 0.00 82 1013.6
20260502061501 61 43 0.0 1.0 0.00 0.00 0.00 82 1013.7
20260502060001 61 43 0.0 1.0 0.00 0.00 0.00 82 1013.7
20260502054625 61 43 0.0 1.0 0.00 0.00 0.00 81 1013.6
20260502053126 61 54 0.0 3.0 0.00 0.00 0.00 82 1013.8
20260502053001 61 32 0.0 3.0 0.00 0.00 0.00 82 1013.8
20260502051600 61 27 0.0 1.0 0.00 0.00 0.00 82 1013.7
20260502050001 62 356 0.0 0.0 0.00 0.00 0.00 81 1013.7
20260502044502 62 354 0.0 0.0 0.00 0.00 0.00 80 1013.7
20260502043108 63 312 0.0 0.0 0.00 0.00 0.00 80 1013.5
20260502043002 63 312 0.0 0.0 0.00 0.00 0.00 80 1013.5
20260502041501 63 312 0.0 0.0 0.00 0.00 0.00 79 1013.3
20260502040002 64 287 0.0 2.0 0.00 0.00 0.00 78 1013.0
20260502034501 65 220 0.0 1.0 0.00 0.00 0.00 77 1012.8
20260502033101 66 220 0.0 1.0 0.00 0.00 0.00 75 1012.7
20260502033001 66 220 0.0 1.0 0.00 0.00 0.00 75 1012.7
20260502031501 67 220 0.0 0.0 0.00 0.00 0.00 73 1012.6
20260502030112 68 220 0.0 1.0 0.00 0.00 0.00 70 1012.5
20260502030002 68 220 0.0 1.0 0.00 0.00 0.00 70 1012.5
20260502024502 70 210 0.0 1.0 0.00 0.00 0.00 66 1012.4
20260502023103 71 195 0.0 0.0 0.00 0.00 0.00 63 1012.4
20260502023002 71 195 0.0 0.0 0.00 0.00 0.00 63 1012.4
20260502021600 73 195 0.0 1.0 0.00 0.00 0.00 60 1012.4
20260502020002 74 195 0.0 0.0 0.00 0.00 0.00 57 1012.4
20260502014501 75 195 0.0 0.0 0.00 0.00 0.00 56 1012.5
20260502013102 75 195 0.0 2.0 0.00 0.00 0.00 54 1012.6
20260502011501 76 193 0.0 2.0 0.00 0.00 0.00 52 1012.6
20260502010002 76 241 1.0 2.0 0.00 0.00 0.00 47 1012.7
20260502004600 76 223 0.0 2.0 0.00 0.00 0.00 49 1012.9
20260502004501 76 223 0.0 2.0 0.00 0.00 0.00 49 1012.8
20260502003100 76 170 0.0 2.0 0.00 0.00 0.00 48 1012.8
20260502003000 76 170 1.0 2.0 0.00 0.00 0.00 46 1012.8
20260502001600 76 224 0.0 2.0 0.00 0.00 0.00 49 1012.9
20260502000002 77 214 0.0 2.0 0.00 0.00 0.00 50 1012.9
20260501234601 77 160 1.0 3.0 0.00 0.00 0.00 49 1012.9
20260501233103 77 195 1.0 3.0 0.00 0.00 0.00 50 1013.2
20260501231602 77 216 0.0 2.0 0.00 0.00 0.00 49 1013.4
20260501231502 77 216 0.0 2.0 0.00 0.00 0.00 47 1013.3
20260501230105 77 320 1.0 3.0 0.00 0.00 0.00 49 1013.6
20260501224559 78 200 1.0 3.0 0.00 0.00 0.00 49 1013.6
20260501223112 78 143 2.0 4.0 0.00 0.00 0.00 46 1014.0
20260501221601 77 195 2.0 3.0 0.00 0.00 0.00 50 1014.2
20260501221500 77 261 1.0 3.0 0.00 0.00 0.00 48 1014.2
20260501220003 77 212 1.0 3.0 0.00 0.00 0.00 51 1014.2
20260501214601 77 230 1.0 4.0 0.00 0.00 0.00 50 1014.4
20260501213110 77 158 1.0 3.0 0.00 0.00 0.00 51 1014.6
20260501211610 76 239 1.0 6.0 0.00 0.00 0.00 50 1014.6
20260501211504 77 224 2.0 6.0 0.00 0.00 0.00 52 1014.6
20260501204612 76 121 1.0 4.0 0.00 0.00 0.00 50 1014.7
20260501203109 75 181 1.0 3.0 0.00 0.00 0.00 53 1014.7
20260501201559 75 213 1.0 4.0 0.00 0.00 0.00 52 1014.9